Regional Weather Roundup
Issued by NWS

Home | Current Version | Previous Version | Text Only | Print | Product List | Glossary On
Versions: 1 2 3 4 5 6 7 8 9 10 11 12 13 14 15 16 17 18 19 20 21 22 23 24 25 26 27 28 29 30 31 32 33 34 35 36 37 38 39 40 41 42 43 44 45 46 47 48 49 50
000
ASUS44 KFWD 210110
RWRTX
NORTH TEXAS HOURLY WEATHER ROUNDUP
NATIONAL WEATHER SERVICE FORT WORTH TX
700 PM CST SAT JAN 20 2018

NOTE: "FAIR" INDICATES FEW OR NO CLOUDS BELOW 12,000 FEET WITH NO
SIGNIFICANT WEATHER AND/OR OBSTRUCTIONS TO VISIBILITY.

TXZ118-119-210200-
DALLAS/FORT WORTH METROPLEX

CITY           SKY/WX    TMP DP  RH WIND       PRES   REMARKS
DFW AIRPORT    FAIR      66  55  67 S17G25    29.88R
DALLAS LOVE    FAIR      65  57  75 S20G26    29.91R
FTW MEACHAM    FAIR      66  55  67 S21G30    29.88R
DAL-EXECUTIVE  FAIR      63  57  81 S15G24    29.91R
FTW-ALLIANCE   FAIR      65  54  67 S16G22    29.87R
FTW-NAS-JRB    FAIR      66  53  63 S15       29.88R
FTW-SPINKS     CLEAR     64  55  72 SE14G21   29.91R
ARLINGTON      FAIR      63  56  78 SE18G28   29.90R
GRAND PRAIRIE  FAIR      63  54  71 SE15G21   29.92R
ADDISON        CLEAR     64  55  72 SE18G25   29.91R
MESQUITE       PTCLDY    61  55  82 SE14G21   29.94R
LANCASTER      FAIR      62  55  78 S13       29.95R
$$

TXZ091>094-102>105-117-120-121-131>134-210200-
NORTH CENTRAL TEXAS

CITY           SKY/WX    TMP DP  RH WIND       PRES   REMARKS
SHRMAN/DENISON FAIR      61  54  76 SE16      29.89S
GAINESVILLE    FAIR      61  52  72 S13       29.89R
BOWIE          FAIR      64  48  55 SE7       29.84S
BRIDGEPORT     FAIR      67  42  40 SE7       29.86S
DECATUR        FAIR      64  52  66 SE12      29.85R
DENTON         FAIR      64  55  72 S18       29.87R
MCKINNEY       FAIR      61  56  83 SE17      29.91R
BONHAM         FAIR      59  54  84 S13       29.92S
GREENVILLE     CLOUDY    64  57  77 S16G23    29.95R
ROCKWALL       FAIR      61  56  84 S14G21    29.93S
TERRELL        CLOUDY    63  56  78 S16G24    29.95R
WAXAHACHIE     FAIR      62  56  82 S12G18    29.94R
CLEBURNE       FAIR      63  57  82 S16G25    29.92R
GRANBURY       FAIR      69  50  51 SE10      29.88S
$$

TXZ083>090-098>101-113>116-127>130-139>142-154-155-210200-
WESTERN NORTH TEXAS

CITY           SKY/WX    TMP DP  RH WIND       PRES   REMARKS
WICHITA FALLS  FAIR      57  34  41 S12       29.79R
WF-KICKAPOO    FAIR      57  35  42 SE8       29.82R
VERNON         FAIR      60  19  20 SE12      29.77S
ABILENE        FAIR      62  31  31 S12       29.84S
ABILENE-DYESS  FAIR      54  31  40 SE9       29.83R
GRAHAM           N/A     67  37  33 SE7       29.81S
BRECKENRIDGE   FAIR      69  28  21 S12       29.83R
CISCO          FAIR      63  30  29 S9        29.86R
EASTLAND       FAIR      65  35  32 S7        29.85R
RANGER         FAIR      66  34  30 S7        29.86R
MINERAL WELLS  FAIR      67  40  37 SE10      29.84R
STEPHENVILLE   FAIR      67  48  51 S13       29.90R
COMANCHE       FAIR      64  42  45 S8        29.89R
BROWNWOOD      FAIR      64  32  29 SE6       29.87S
COLEMAN          N/A     63  31  30 S8        29.87S
$$

TXZ143>147-156>162-174-175-210200-
CENTRAL TEXAS

CITY           SKY/WX    TMP DP  RH WIND       PRES   REMARKS
WACO           FAIR      60  54  80 S20       29.95S
WACO-TSTC      CLEAR     63  55  77 S15G24    29.95S
WACO-MCGREGOR  FAIR      60  55  83 S17       29.95S
CORSICANA      CLOUDY    63  58  83 S15G24    29.98R
MEXIA          CLOUDY    62  57  83 S17       29.98R
HEARNE         CLOUDY    62  61  97 CALM      30.02S
CAMERON        MOCLDY    63  58  85 S6        29.98F
TEMPLE         CLOUDY    62  57  83 S17       29.97R
KILLEEN        FAIR      58  54  87 SE16      29.94R
KILLEEN-SKYLRK FAIR      59  55  87 S15G23    29.96S
FORT HOOD      FAIR      58  54  86 S15       29.92S
GATESVILLE     FAIR      61  54  77 SE14      29.94S
HAMILTON       FAIR      63  52  67 S13       29.92R
LAMPASAS       FAIR      61  52  73 S10       29.94R
$$

TXZ095>097-106>112-122>126-135>138-148>153-164>167-210200-
EAST TEXAS

CITY           SKY/WX    TMP DP  RH WIND       PRES   REMARKS
PARIS          CLOUDY    63  56  78 S15G28    29.96R
SULPHUR SPRNGS CLOUDY    64  57  79 S15G23    29.98S
MOUNT PLEASANT FAIR      60  58  91 SE7       30.00F
GILMER         CLOUDY    61  58  90 SE5       30.00R
MINEOLA        CLOUDY    63  59  88 S5        29.99R
TYLER          MOCLDY    62  59  90 S8        29.99R
LONGVIEW       MOCLDY    63  61  93 S13       30.00S
MARSHALL       CLOUDY    63  58  84 S8        30.05S
ATHENS         MOCLDY    59  55  88 S7        29.98S
PALESTINE      MOCLDY    63  60  89 S3        30.02R
JACKSONVILLE   CLOUDY    64  62  93 SE7       30.03S
CENTER         CLOUDY    62  60  94 SE10      30.07R
NACOGDOCHES    CLOUDY    63  61  93 SE7       30.05R
LUFKIN         MOCLDY    63  62  97 SE9       30.04R
$$

SUPPLEMENTAL OBSERVATIONS (NWS FORT WORTH AREA)

CITY           SKY/WX    TMP DP  RH WIND       PRES   REMARKS
CADDO GRASSLND   N/A     61  54  77 S12         N/A
PAT MAYSE LAKE   N/A     61  57  88 SE17        N/A
GREENVILLE       N/A     63  57  82 S13         N/A
CEDAR HILL       N/A     63  54  72 S16G23      N/A
LBJ GRASSLAND    N/A     64  50  59 SE12        N/A
POSSUM KINGDOM   N/A     66  36  32 S6          N/A
GRANBURY         N/A     66  50  55 SE12        N/A
MCGREGOR         N/A     61  54  77 S21G28      N/A
TEMPLE           N/A     63  57  82 S9G18       N/A
$$

SUPPLEMENTAL OBSERVATIONS (NWS NORMAN AREA)

CITY           SKY/WX    TMP DP  RH WIND       PRES   REMARKS
GOODLETT         N/A     62  19  18 S12       29.75R
ODELL            N/A     61  28  28 SE13      29.77S
CROWELL          N/A     60  27  28 S13       29.78R
KNOX CITY        N/A     60  26  27 S14       29.79R
SEYMOUR          N/A     65  32  28 SE12      29.79R
MILLERS CREEK    N/A     61  34  36 S8          N/A
$$

SUPPLEMENTAL OBSERVATIONS (NWS SAN ANGELO AREA)

CITY           SKY/WX    TMP DP  RH WIND       PRES   REMARKS
WEINERT          N/A     64  31  30 S14       29.80S
HASKELL          N/A     67  29  24 S12       29.81R
THROCKMORTON     N/A     64  33  32 S8        29.82S
STAMFORD         N/A     62  33  32 S13       29.82R
CLYDE            N/A     65  31  28 S9        29.86S
HAMBY            N/A     61  32  33 S10         N/A
IVIE RESERVOIR   N/A     64  32  29 SE9         N/A
COLORADO BEND    N/A     61  50  67 S15G23      N/A
$$

SUPPLEMENTAL OBSERVATIONS (NWS SHREVEPORT AREA)

CITY           SKY/WX    TMP DP  RH WIND       PRES   REMARKS
CLARKSVILLE      N/A     59  54  82 SE6         N/A
TEXARKANA        N/A     61  55  82 SE5         N/A
LINDEN           N/A     61  57  88 SE3         N/A
GILMER           N/A     63  57  82 SE6         N/A
HENDERSON        N/A     64  61  88 S9          N/A
LUFKIN           N/A     64  61  88 MISG        N/A
N SABINE NF      N/A    N/A N/A N/A MISG        N/A
S SABINE NF      N/A     61  59  94 SW3         N/A
$$

SUPPLEMENTAL OBSERVATIONS ARE A COLLECTION OF AUTOMATED INSTRUMENTS
THAT ARE MAINTAINED BY A VARIETY OF FEDERAL AND STATE AGENCIES.
CERTAIN ELEMENTS...SUCH AS HUMIDITY VALUES AND SUSTAINED WIND
SPEEDS...MAY BE APPROXIMATED.





USA.gov is the U.S. government's official web portal to all federal, state and local government web resources and services.